Flag for U.S.A. Weather past 2 weeks in Hollywood, California, U.S.A.

Now
66 °F

Sunny.


Feels Like: 66 °F
Forecast: 54 / 74 °F
Wind: 3 mph from Northwest

Location: Van Nuys Airport


UV Index: 5 (Moderate)

Visibility: 10 mi


Pressure: 29.87 "Hg

Humidity: 56%

Dew point: 50 °F

Location of HollywoodLocation

Historic Weather in Hollywood

°F

Hollywood temperature yesterday

Maximum temperature yesterday: 73 °F (at 3:51 PM)
Minimum temperature yesterday: 55 °F (at 2:51 AM)
Average temperature yesterday: 62 °F

Past Weeks' High & Low Weather Summary

 TemperatureHumidityPressure
High90 °F (Apr 9, 3:51 PM)88% (Apr 16, 2:03 AM)30.09 "Hg (Apr 16, 2:03 AM)
Low48 °F (Apr 5, 5:51 AM)5% (Apr 9, 12:51 PM)29.75 "Hg (Apr 16, 4:51 PM)
Average66 °F46%29.94 "Hg
* Reported Apr 3 6:51 PM — Apr 18 6:51 PM, Hollywood, Weather by CustomWeather, © 2014

Note: Actual official high and low records may vary slightly from our data, if they occured in-between our weather recording intervals... More about our weather records

Advertising

Historic Weather Conditions — Data for Previous 24 hours

 ConditionsComfort  
Time TempWeatherWind HumidityBarometerVisibility
6:51 PM
Apr 18
67 °FSunny.6 mph53%29.86 "Hg10 mi
5:51 PM68 °FSunny.9 mph53%29.84 "Hg10 mi
4:51 PM70 °FSunny.8 mph49%29.84 "Hg10 mi
3:51 PM71 °FSunny.8 mph47%29.84 "Hg10 mi
2:51 PM71 °FSunny.6 mph47%29.86 "Hg10 mi
1:51 PM71 °FSunny.8 mph47%29.87 "Hg10 mi
12:51 PM71 °FSunny.13 mph47%29.88 "Hg10 mi
11:51 AM68 °FPartly sunny.3 mph51%29.89 "Hg10 mi
10:51 AM66 °FPartly sunny.6 mph54%29.90 "Hg10 mi
9:51 AM65 °FBroken clouds.No wind61%29.90 "Hg10 mi
8:51 AM60 °FOvercast.No wind72%29.90 "Hg10 mi
7:51 AM58 °FMostly cloudy.No wind81%29.90 "Hg10 mi
6:51 AM57 °FMostly cloudy.6 mph83%29.87 "Hg7 mi
5:51 AM58 °FOvercast.7 mph78%29.85 "Hg10 mi
4:51 AM59 °FOvercast.6 mph75%29.85 "Hg10 mi
3:51 AM59 °FOvercast.5 mph75%29.85 "Hg10 mi
2:51 AM60 °FOvercast.6 mph75%29.85 "Hg10 mi
1:51 AM59 °FPassing clouds.3 mph78%29.86 "Hg10 mi
12:51 AM59 °FMostly cloudy.No wind78%29.88 "Hg9 mi
11:51 PM
Apr 17
59 °FOvercast.No wind81%29.87 "Hg8 mi
10:51 PM59 °FOvercast.5 mph78%29.90 "Hg8 mi
9:51 PM60 °FOvercast.9 mph75%29.90 "Hg9 mi
8:51 PM59 °FOvercast.5 mph78%29.86 "Hg10 mi
Weather by CustomWeather, © 2014

See weather overview